Other Public Products
Issued by NWS Charleston, SC

Home | Current Version | Previous Version | Text Only | Print | Product List | Glossary On
Versions: 1 2 3 4 5 6 7 8 9 10 11 12 13 14 15 16 17 18 19 20 21 22 23 24 25 26 27 28 29 30 31 32 33 34 35 36 37 38 39 40 41 42 43 44 45 46 47 48 49 50
000
FPUS82 KCHS 220527
OPUCHS

TEST...KCHS/KSAV Gateway Observations...TEST
National Weather Service Charleston SC
100 AM EDT SUN OCT 22 2017

NOTE: "fair" indicates few or no clouds below 12,000 feet with no
significant weather and/or obstructions to visibility.

SCZ050-WAZ558-NCZ071-TXZ119-213-PAZ071-DCZ001-FLZ074-172-MI076-
NYZ176-178-MAZ016-IL014-TNZ027-NJZ106-GAZ044-MD014-220600-

...Gateway Observations for Charleston International...

CITY           SKY/WX    TMP DP  RH WIND       PRES   REMARKS
Chas Airport   PTCLDY    67  65  93 NE7       30.27F
Seattle        LGT RAIN  57  56  96 S17G24    29.65R
Charlotte      PTCLDY    56  53  90 CALM      30.32F
Dallas DFW     TSTM      75  62  64 NW20      29.90R
Dallas Love    MOCLDY    80  69  69 S15G24    29.88S
Philladelphia  PTCLDY    58  49  72 CALM      30.37S
Wash National  MOCLDY    59  51  75 CALM      30.35F
Baltimore      PTCLDY    51  50  96 CALM      30.35F
Miami          MOCLDY    83  75  77 E15       30.07S HX  90
Detroit        MOCLDY    59  46  62 S6        30.17S
Newark         PTCLDY    57  46  66 CALM      30.36S
Laguardia      MOCLDY    64  47  53 CALM      30.35S
J F K          PTCLDY    59  54  83 W3        30.37S
Boston Logan   CLOUDY    58  48  69 SW5       30.32S
Ft. Lauderdale MOCLDY    81  75  82 SE17      30.07F
Chicago O`Hare PTCLDY    67  55  65 S20       30.00S
Chicago Midway PTCLDY    68  55  63 S15       30.01S
Houston Bush   PTCLDY    76  75  97 S3        29.95R
Houston Hobby  PTCLDY    79  74  84 SE7       29.94S
Nashville      MOCLDY    65  52  62 SE9       30.17F
Atlanta        MOCLDY    61  55  81 E8        30.27F

$$

GAZ044-118-TXZ119-213-NCZ071-DCZ001-MDZ014-506-PAZ021-071-NJZ106-
NYZ176-178-MAZ106-OHZ011-021-055-MIZ076-KYZ091-ILZ014-INZ047-
MNZ060-ONZ431-220600-

...Gateway Observations for Savannah International...

CITY           SKY/WX    TMP DP  RH WIND       PRES   REMARKS
Savannah Arpt  CLOUDY    69  67  93 NE6       30.25F
Atlanta        MOCLDY    61  55  81 E8        30.27F
Charlotte      PTCLDY    56  53  90 CALM      30.32F
Dallas DFW     TSTM      75  62  64 NW20      29.90R
Houston Bush   PTCLDY    76  75  97 S3        29.95R
Wash National  MOCLDY    59  51  75 CALM      30.35F
Wash Dulles    PTCLDY    49  46  90 CALM      30.35F
Baltimore      PTCLDY    51  50  96 CALM      30.35F
Philadelphia   PTCLDY    58  49  72 CALM      30.37S
Newark         PTCLDY    57  46  66 CALM      30.36S
Laguardia      MOCLDY    64  47  53 CALM      30.35S
J F K          PTCLDY    59  54  83 W3        30.37S
Boston         CLOUDY    58  48  69 SW5       30.32S
Pittsburg      PTCLDY    56  53  90 CALM      30.26F
Akron          PTCLDY    57  49  74 S6        30.24S
Cleveland      PTCLDY    63  52  67 S7        30.21F
Cincinnati     PTCLDY    57  49  74 S8        30.19S
Columbus       CLOUDY    55  51  85 CALM      30.20F
Detroit        MOCLDY    59  46  62 S6        30.17S
Chicago O`Hare PTCLDY    67  55  65 S20       30.00S
Minneapolis    CLOUDY    53  46  77 W8        29.85R
Indianapolis   PTCLDY    61  50  67 SE8       30.12F
Toronto Canada CLEAR     55  52  88 NE5       30.21F

$$




USA.gov is the U.S. government's official web portal to all federal, state and local government web resources and services.